Location: *
(13.2257°S, 48.7193°W)
Time: 18:42:51
(UTC+00:00)

SL-16 R/B - Pass Details

Date: 25 May 2026
Orbit: 984 x 1007 km, 99.8° (Epoch: 10 June)

Event Time Altitude Azimuth Distance (km) Brightness Sun altitude
Rises 06:46:49 0° 140° (SE) 3,744 5.8 -38.3°
Reaches altitude 10° 06:50:09 10° 122° (ESE) 2,788 5.3 -37.5°
Maximum altitude 06:54:20 19° 80° (E) 2,208 4.9 -36.5°
Drops below altitude 10° 06:58:30 10° 37° (NE) 2,769 5.4 -35.6°
Sets 07:01:46 0° 20° (NNE) 3,710 6.0 -34.8°
